QLK926 YPAD-YMIA

Flight info

Callsign QLK926
Flight time 0h 35m
Altitude 19000
Route UPROT2/23 UPROT V361 MIA
Aircraft A320/M-SDE3FGHIRWY/LB1

Departure

Time 2026-04-29 10:03
Airport Adelaide International Airport (YPAD)

Arrival

Time 2026-04-29 10:38
Airport Mildura Airport (YMIA)
Time Latitude Longitude Altitude Speed Heading
2026-04-29 09:43 -34.93948 138.53804 26 ft 0 kts 319°
2026-04-29 09:54 -34.93949 138.53806 24 ft 1 kts 319°
2026-04-29 09:55 -34.93957 138.53814 26 ft 1 kts 319°
2026-04-29 09:55 -34.93965 138.53822 25 ft 1 kts 318°
2026-04-29 09:55 -34.93972 138.53830 24 ft 1 kts 317°
2026-04-29 09:55 -34.93980 138.53838 24 ft 1 kts 316°
2026-04-29 09:56 -34.93987 138.53847 25 ft 1 kts 315°
2026-04-29 09:56 -34.93988 138.53849 25 ft 0 kts 315°
2026-04-29 09:57 -34.93996 138.53858 25 ft 2 kts 315°
2026-04-29 09:58 -34.94003 138.53866 24 ft 1 kts 334°
2026-04-29 09:58 -34.94012 138.53871 23 ft 1 kts 358°
2026-04-29 09:58 -34.94022 138.53871 22 ft 1 kts 24°
2026-04-29 09:58 -34.94029 138.53867 21 ft 0 kts 43°
2026-04-29 09:59 -34.94031 138.53865 21 ft 0 kts 43°
2026-04-29 09:59 -34.94018 138.53884 25 ft 7 kts 56°
2026-04-29 09:59 -34.93982 138.53936 23 ft 9 kts 48°
2026-04-29 09:59 -34.93938 138.53998 22 ft 11 kts 50°
2026-04-29 10:00 -34.93891 138.54066 21 ft 8 kts 50°
2026-04-29 10:00 -34.93882 138.54122 20 ft 9 kts 101°
2026-04-29 10:00 -34.93933 138.54179 20 ft 11 kts 143°
2026-04-29 10:00 -34.93985 138.54232 21 ft 0 kts 140°
2026-04-29 10:01 -34.93995 138.54243 22 ft 4 kts 140°
2026-04-29 10:01 -34.94033 138.54274 21 ft 9 kts 155°
2026-04-29 10:02 -34.94096 138.54269 23 ft 10 kts 209°
2026-04-29 10:02 -34.94118 138.54243 25 ft 0 kts 227°
2026-04-29 10:02 -34.94265 138.54042 22 ft 69 kts 230°
2026-04-29 10:03 -34.94713 138.53381 21 ft 129 kts 230°
2026-04-29 10:03 -34.95393 138.52396 66 ft 166 kts 230°
2026-04-29 10:03 -34.96081 138.51374 731 ft 155 kts 230°
2026-04-29 10:03 -34.96784 138.50353 1181 ft 159 kts 229°
2026-04-29 10:04 -34.97522 138.49310 1586 ft 165 kts 230°
2026-04-29 10:04 -34.98306 138.48188 1794 ft 187 kts 231°
2026-04-29 10:04 -34.99180 138.46874 2030 ft 211 kts 233°
2026-04-29 10:04 -35.00136 138.45425 2445 ft 229 kts 233°
2026-04-29 10:05 -35.01208 138.43854 2845 ft 252 kts 231°
2026-04-29 10:05 -35.02595 138.42421 3415 ft 271 kts 207°
2026-04-29 10:05 -35.04461 138.42054 4240 ft 280 kts 171°
2026-04-29 10:05 -35.05728 138.42504 4806 ft 283 kts 153°
2026-04-29 10:06 -35.07211 138.43919 6076 ft 256 kts 123°
2026-04-29 10:06 -35.08554 138.46201 7189 ft 264 kts 130°
2026-04-29 10:06 -35.09399 138.47372 7426 ft 279 kts 126°
2026-04-29 10:06 -35.10391 138.49491 7817 ft 297 kts 108°
2026-04-29 10:07 -35.10856 138.51995 8288 ft 309 kts 90°
2026-04-29 10:07 -35.10800 138.54565 9303 ft 299 kts 81°
2026-04-29 10:07 -35.10486 138.57052 10272 ft 294 kts 73°
2026-04-29 10:07 -35.09935 138.59433 11146 ft 289 kts 66°
2026-04-29 10:08 -35.09064 138.61686 11549 ft 303 kts 53°
2026-04-29 10:08 -35.07670 138.63706 11772 ft 321 kts 41°
2026-04-29 10:08 -35.06012 138.65658 11962 ft 342 kts 43°
2026-04-29 10:08 -35.04340 138.67849 12148 ft 363 kts 46°
2026-04-29 10:09 -35.02683 138.70283 12368 ft 382 kts 49°
2026-04-29 10:09 -35.01071 138.72933 12598 ft 397 kts 53°
2026-04-29 10:09 -34.99534 138.75756 12884 ft 411 kts 56°
2026-04-29 10:09 -34.98036 138.78844 13169 ft 424 kts 59°
2026-04-29 10:10 -34.96666 138.82023 13478 ft 434 kts 62°
2026-04-29 10:10 -34.95357 138.85275 14698 ft 398 kts 60°
2026-04-29 10:10 -34.93860 138.87897 16975 ft 361 kts 44°
2026-04-29 10:10 -34.91896 138.89658 17868 ft 354 kts 27°
2026-04-29 10:11 -34.89724 138.91107 18417 ft 360 kts 27°
2026-04-29 10:11 -34.87499 138.92587 18734 ft 370 kts 27°
2026-04-29 10:11 -34.85202 138.94130 18930 ft 382 kts 30°
2026-04-29 10:11 -34.83148 138.96203 19147 ft 389 kts 45°
2026-04-29 10:12 -34.81304 138.98626 19256 ft 394 kts 45°
2026-04-29 10:12 -34.79400 139.01138 19286 ft 413 kts 45°
2026-04-29 10:12 -34.77434 139.03739 19286 ft 421 kts 45°
2026-04-29 10:12 -34.75447 139.06370 19285 ft 423 kts 45°
2026-04-29 10:13 -34.73457 139.09003 19285 ft 423 kts 45°
2026-04-29 10:13 -34.71461 139.11638 19295 ft 424 kts 45°
2026-04-29 10:13 -34.69460 139.14272 19284 ft 424 kts 45°
2026-04-29 10:13 -34.67458 139.16900 19281 ft 424 kts 45°
2026-04-29 10:14 -34.65457 139.19526 19277 ft 424 kts 45°
2026-04-29 10:14 -34.63455 139.22153 19283 ft 424 kts 45°
2026-04-29 10:14 -34.61449 139.24785 19288 ft 424 kts 45°
2026-04-29 10:14 -34.59490 139.27458 19276 ft 425 kts 50°
2026-04-29 10:15 -34.57880 139.30472 19277 ft 428 kts 60°
2026-04-29 10:15 -34.56735 139.33815 19282 ft 430 kts 71°
2026-04-29 10:15 -34.56098 139.37392 19287 ft 443 kts 80°
2026-04-29 10:15 -34.55697 139.41043 19292 ft 457 kts 81°
2026-04-29 10:16 -34.55266 139.44889 19282 ft 463 kts 80°
2026-04-29 10:16 -34.54827 139.48765 19285 ft 464 kts 80°
2026-04-29 10:16 -34.54387 139.52651 19276 ft 465 kts 80°
2026-04-29 10:16 -34.53948 139.56535 19279 ft 465 kts 80°
2026-04-29 10:17 -34.53508 139.60426 19290 ft 466 kts 80°
2026-04-29 10:17 -34.53065 139.64316 19281 ft 466 kts 80°
2026-04-29 10:17 -34.52623 139.68201 19285 ft 466 kts 80°
2026-04-29 10:17 -34.52177 139.72086 19292 ft 465 kts 80°
2026-04-29 10:18 -34.51728 139.75972 19275 ft 465 kts 80°
2026-04-29 10:18 -34.51276 139.79861 19273 ft 465 kts 80°
2026-04-29 10:18 -34.50825 139.83745 19275 ft 465 kts 80°
2026-04-29 10:18 -34.50377 139.87622 19280 ft 465 kts 80°
2026-04-29 10:19 -34.49936 139.91451 19273 ft 465 kts 80°
2026-04-29 10:19 -34.49482 139.95374 19283 ft 464 kts 80°
2026-04-29 10:19 -34.49034 139.99197 19280 ft 464 kts 80°
2026-04-29 10:19 -34.48577 140.03073 19281 ft 464 kts 80°
2026-04-29 10:20 -34.48120 140.06944 19268 ft 464 kts 80°
2026-04-29 10:20 -34.47664 140.10817 19269 ft 464 kts 80°
2026-04-29 10:20 -34.47208 140.14684 19270 ft 464 kts 80°
2026-04-29 10:20 -34.46751 140.18554 19271 ft 464 kts 80°
2026-04-29 10:21 -34.46293 140.22427 19263 ft 464 kts 80°
2026-04-29 10:21 -34.45818 140.26286 19269 ft 463 kts 79°
2026-04-29 10:21 -34.45271 140.30134 19273 ft 463 kts 78°
2026-04-29 10:21 -34.44667 140.33963 19272 ft 463 kts 77°
2026-04-29 10:22 -34.44033 140.37789 19276 ft 463 kts 77°
2026-04-29 10:22 -34.43392 140.41613 19281 ft 463 kts 77°
2026-04-29 10:22 -34.42758 140.45436 19278 ft 463 kts 77°
2026-04-29 10:22 -34.42138 140.49265 19278 ft 463 kts 77°
2026-04-29 10:23 -34.41527 140.53096 19279 ft 463 kts 77°
2026-04-29 10:23 -34.40923 140.56929 19276 ft 463 kts 77°
2026-04-29 10:23 -34.40319 140.60767 19281 ft 463 kts 77°
2026-04-29 10:23 -34.39712 140.64594 19276 ft 463 kts 77°
2026-04-29 10:24 -34.39102 140.68426 19288 ft 463 kts 77°
2026-04-29 10:24 -34.38489 140.72262 19280 ft 464 kts 77°
2026-04-29 10:24 -34.37875 140.76094 19029 ft 463 kts 77°
2026-04-29 10:24 -34.37262 140.79915 18791 ft 462 kts 77°
2026-04-29 10:25 -34.36650 140.83720 18558 ft 460 kts 77°
2026-04-29 10:25 -34.36038 140.87516 18302 ft 459 kts 77°
2026-04-29 10:25 -34.35424 140.91303 18036 ft 457 kts 77°
2026-04-29 10:25 -34.34813 140.95067 17738 ft 455 kts 77°
2026-04-29 10:26 -34.34205 140.98805 17107 ft 451 kts 77°
2026-04-29 10:26 -34.33602 141.02510 16465 ft 446 kts 77°
2026-04-29 10:26 -34.33006 141.06168 15840 ft 439 kts 77°
2026-04-29 10:26 -34.32426 141.09715 15661 ft 421 kts 77°
2026-04-29 10:27 -34.31326 141.16437 15001 ft 399 kts 77°
2026-04-29 10:27 -34.30788 141.19707 14462 ft 395 kts 77°
2026-04-29 10:27 -34.30254 141.22948 13870 ft 391 kts 77°
2026-04-29 10:28 -34.29729 141.26133 13001 ft 382 kts 77°
2026-04-29 10:28 -34.29215 141.29260 11880 ft 376 kts 77°
2026-04-29 10:28 -34.28708 141.32339 10840 ft 370 kts 76°
2026-04-29 10:28 -34.28216 141.35308 10460 ft 346 kts 76°
2026-04-29 10:29 -34.27763 141.38044 10334 ft 319 kts 76°
2026-04-29 10:29 -34.27338 141.40591 10096 ft 300 kts 76°
2026-04-29 10:29 -34.26932 141.43011 9812 ft 288 kts 76°
2026-04-29 10:29 -34.26531 141.45394 9682 ft 290 kts 76°
2026-04-29 10:30 -34.26129 141.47782 9556 ft 290 kts 76°
2026-04-29 10:30 -34.25726 141.50173 9280 ft 290 kts 76°
2026-04-29 10:30 -34.25329 141.52540 8795 ft 285 kts 76°
2026-04-29 10:30 -34.24940 141.54867 8313 ft 281 kts 76°
2026-04-29 10:31 -34.24556 141.57164 7833 ft 277 kts 76°
2026-04-29 10:31 -34.24174 141.59432 7359 ft 274 kts 76°
2026-04-29 10:31 -34.23796 141.61676 6891 ft 270 kts 77°
2026-04-29 10:31 -34.23426 141.63890 6389 ft 267 kts 77°
2026-04-29 10:32 -34.23058 141.66083 5939 ft 265 kts 77°
2026-04-29 10:32 -34.22691 141.68264 5485 ft 264 kts 77°
2026-04-29 10:32 -34.22322 141.70443 5027 ft 268 kts 77°
2026-04-29 10:32 -34.21948 141.72642 4716 ft 265 kts 77°
2026-04-29 10:33 -34.21581 141.74814 4316 ft 261 kts 77°
2026-04-29 10:33 -34.21218 141.76962 3713 ft 261 kts 77°
2026-04-29 10:33 -34.20860 141.79084 3334 ft 251 kts 77°
2026-04-29 10:33 -34.20529 141.81051 3266 ft 228 kts 77°
2026-04-29 10:34 -34.20221 141.82863 3195 ft 215 kts 76°
2026-04-29 10:34 -34.19919 141.84620 3109 ft 213 kts 76°
2026-04-29 10:34 -34.19621 141.86346 3017 ft 212 kts 76°
2026-04-29 10:34 -34.19421 141.88112 2924 ft 206 kts 89°
2026-04-29 10:35 -34.19615 141.89772 2834 ft 200 kts 99°
2026-04-29 10:35 -34.19894 141.91387 2751 ft 192 kts 99°
2026-04-29 10:35 -34.20162 141.92937 2514 ft 187 kts 98°
2026-04-29 10:35 -34.20423 141.94459 2277 ft 183 kts 99°
2026-04-29 10:36 -34.20679 141.95945 2042 ft 179 kts 99°
2026-04-29 10:36 -34.20929 141.97398 1806 ft 172 kts 98°
2026-04-29 10:36 -34.21165 141.98764 1586 ft 160 kts 98°
2026-04-29 10:36 -34.21381 142.00019 1408 ft 145 kts 98°
2026-04-29 10:37 -34.21582 142.01192 1217 ft 140 kts 98°
2026-04-29 10:37 -34.21774 142.02328 1030 ft 137 kts 98°
2026-04-29 10:37 -34.21960 142.03449 828 ft 136 kts 98°
2026-04-29 10:37 -34.22157 142.04576 643 ft 138 kts 100°
2026-04-29 10:38 -34.22351 142.05711 461 ft 138 kts 101°
2026-04-29 10:38 -34.22555 142.06844 291 ft 138 kts 101°
2026-04-29 10:38 -34.22739 142.07955 176 ft 124 kts 101°
2026-04-29 10:38 -34.22860 142.08666 174 ft 43 kts 102°
2026-04-29 10:39 -34.22889 142.08832 175 ft 19 kts 102°
2026-04-29 10:39 -34.22924 142.08925 176 ft 11 kts 150°
2026-04-29 10:39 -34.23027 142.08921 175 ft 17 kts 186°
2026-04-29 10:39 -34.23131 142.08911 174 ft 9 kts 184°
2026-04-29 10:40 -34.23169 142.08871 173 ft 10 kts 255°
2026-04-29 10:40 -34.23173 142.08773 173 ft 13 kts 268°
2026-04-29 10:40 -34.23161 142.08704 173 ft 3 kts 331°
2026-04-29 10:40 -34.23103 142.08675 173 ft 13 kts 333°
2026-04-29 10:41 -34.23022 142.08627 174 ft 0 kts 332°